MHY YSTW-YBHI

Flight info

Callsign MHY
Flight time N/A
Altitude 20000
Route TW DCT ANBAN DCT CBA DCT BHI
Aircraft B350/L-SBGRW/S

Departure

Time 2026-04-17 09:58
Airport Tamworth Airport (YSTW)

Arrival

Time N/A
Airport Broken Hill Airport (YBHI)
Time Latitude Longitude Altitude Speed Heading
2026-04-17 09:34 -31.08472 150.84613 1340 ft 0 kts 278°
2026-04-17 09:49 -31.08470 150.84607 1340 ft 2 kts 318°
2026-04-17 09:49 -31.08427 150.84601 1338 ft 6 kts
2026-04-17 09:49 -31.08412 150.84602 1338 ft 0 kts
2026-04-17 09:50 -31.08411 150.84602 1337 ft 0 kts
2026-04-17 09:50 -31.08408 150.84604 1337 ft 3 kts 10°
2026-04-17 09:51 -31.08386 150.84639 1337 ft 4 kts 94°
2026-04-17 09:51 -31.08387 150.84648 1337 ft 0 kts 97°
2026-04-17 09:51 -31.08388 150.84665 1337 ft 3 kts 99°
2026-04-17 09:51 -31.08388 150.84712 1337 ft 8 kts 82°
2026-04-17 09:52 -31.08322 150.84749 1334 ft 14 kts 30°
2026-04-17 09:52 -31.08307 150.84761 1332 ft 4 kts 38°
2026-04-17 09:52 -31.08268 150.84801 1331 ft 9 kts 46°
2026-04-17 09:52 -31.08257 150.84848 1331 ft 5 kts 129°
2026-04-17 09:53 -31.08284 150.84871 1334 ft 3 kts 148°
2026-04-17 09:53 -31.08297 150.84880 1335 ft 0 kts 151°
2026-04-17 09:55 -31.08298 150.84880 1335 ft 3 kts 148°
2026-04-17 09:55 -31.08356 150.84978 1341 ft 21 kts 127°
2026-04-17 09:56 -31.08433 150.85077 1347 ft 23 kts 134°
2026-04-17 09:56 -31.08522 150.85226 1350 ft 22 kts 86°
2026-04-17 09:56 -31.08504 150.85288 1347 ft 0 kts 53°
2026-04-17 09:57 -31.08489 150.85309 1345 ft 11 kts 46°
2026-04-17 09:57 -31.08354 150.85257 1343 ft 58 kts 309°
2026-04-17 09:58 -31.07793 150.84680 1348 ft 145 kts 315°
2026-04-17 09:58 -31.07111 150.83778 1973 ft 144 kts 307°
2026-04-17 09:58 -31.06460 150.82854 2407 ft 152 kts 301°
2026-04-17 09:58 -31.06014 150.81773 2953 ft 149 kts 283°
2026-04-17 09:59 -31.05967 150.80582 3320 ft 155 kts 247°
2026-04-17 09:59 -31.06621 150.79533 3745 ft 165 kts 234°
2026-04-17 09:59 -31.07176 150.78368 4257 ft 169 kts 248°
2026-04-17 09:59 -31.07550 150.77086 4845 ft 168 kts 253°
2026-04-17 10:00 -31.07840 150.75781 5457 ft 169 kts 256°
2026-04-17 10:00 -31.08096 150.74460 6039 ft 171 kts 257°
2026-04-17 10:00 -31.08349 150.73070 6453 ft 183 kts 258°
2026-04-17 10:00 -31.08616 150.71571 6785 ft 196 kts 258°
2026-04-17 10:01 -31.08898 150.69961 7120 ft 207 kts 258°
2026-04-17 10:01 -31.09194 150.68269 7449 ft 217 kts 258°
2026-04-17 10:01 -31.09497 150.66531 7765 ft 225 kts 258°
2026-04-17 10:01 -31.09813 150.64720 8095 ft 236 kts 258°
2026-04-17 10:02 -31.10154 150.62762 8630 ft 246 kts 258°
2026-04-17 10:02 -31.10456 150.61026 10218 ft 210 kts 258°
2026-04-17 10:02 -31.10707 150.59581 11663 ft 176 kts 259°
2026-04-17 10:02 -31.10937 150.58261 12566 ft 168 kts 258°
2026-04-17 10:03 -31.11169 150.56921 13217 ft 172 kts 258°
2026-04-17 10:03 -31.11408 150.55547 13783 ft 180 kts 259°
2026-04-17 10:03 -31.11658 150.54100 14368 ft 184 kts 259°
2026-04-17 10:03 -31.11911 150.52643 14984 ft 187 kts 259°
2026-04-17 10:04 -31.12166 150.51167 15623 ft 187 kts 259°
2026-04-17 10:04 -31.12419 150.49709 16266 ft 186 kts 259°
2026-04-17 10:04 -31.12672 150.48241 16857 ft 186 kts 259°
2026-04-17 10:04 -31.12926 150.46776 17414 ft 187 kts 259°
2026-04-17 10:05 -31.13180 150.45299 17973 ft 187 kts 259°
2026-04-17 10:05 -31.13435 150.43826 18553 ft 186 kts 259°
2026-04-17 10:05 -31.13686 150.42364 19111 ft 184 kts 259°
2026-04-17 10:05 -31.13937 150.40912 19601 ft 185 kts 260°
2026-04-17 10:06 -31.14191 150.39435 19984 ft 190 kts 259°
2026-04-17 10:06 -31.14465 150.37840 20039 ft 209 kts 260°
2026-04-17 10:06 -31.14763 150.36101 20052 ft 227 kts 260°
2026-04-17 10:06 -31.15086 150.34221 20054 ft 242 kts 259°
2026-04-17 10:07 -31.15422 150.32262 20054 ft 249 kts 260°
2026-04-17 10:07 -31.15762 150.30281 20053 ft 255 kts 260°
2026-04-17 10:07 -31.16117 150.28206 20049 ft 260 kts 259°
2026-04-17 10:07 -31.16472 150.26138 20060 ft 264 kts 260°
2026-04-17 10:08 -31.16830 150.24043 20045 ft 265 kts 259°
2026-04-17 10:08 -31.17191 150.21927 20039 ft 263 kts 260°
2026-04-17 10:08 -31.17545 150.19852 20058 ft 261 kts 260°
2026-04-17 10:08 -31.17895 150.17796 20040 ft 260 kts 260°
2026-04-17 10:09 -31.18248 150.15724 20031 ft 259 kts 260°
2026-04-17 10:09 -31.18599 150.13660 20046 ft 258 kts 260°
2026-04-17 10:09 -31.18944 150.11629 20046 ft 257 kts 260°
2026-04-17 10:09 -31.19292 150.09575 20043 ft 256 kts 259°
2026-04-17 10:10 -31.19635 150.07553 20044 ft 256 kts 260°
2026-04-17 10:10 -31.19981 150.05512 20045 ft 256 kts 260°
2026-04-17 10:10 -31.20328 150.03462 20041 ft 256 kts 260°
2026-04-17 10:11 -31.21010 149.99422 20043 ft 255 kts 260°
2026-04-17 10:11 -31.21352 149.97394 20039 ft 255 kts 260°
2026-04-17 10:11 -31.21696 149.95355 20055 ft 254 kts 259°
2026-04-17 10:11 -31.22035 149.93337 20045 ft 254 kts 260°
2026-04-17 10:12 -31.22372 149.91333 20052 ft 253 kts 259°
2026-04-17 10:12 -31.22713 149.89308 20052 ft 254 kts 260°
2026-04-17 10:12 -31.23050 149.87297 20061 ft 253 kts 259°
2026-04-17 10:12 -31.23391 149.85268 20059 ft 253 kts 260°
2026-04-17 10:13 -31.23729 149.83249 20049 ft 253 kts 260°
2026-04-17 10:13 -31.24065 149.81235 20061 ft 253 kts 260°
2026-04-17 10:13 -31.24401 149.79230 20056 ft 253 kts 260°
2026-04-17 10:13 -31.24738 149.77212 20051 ft 253 kts 260°
2026-04-17 10:14 -31.25069 149.75223 20063 ft 252 kts 259°
2026-04-17 10:14 -31.25408 149.73193 20060 ft 253 kts 259°
2026-04-17 10:14 -31.25740 149.71201 20058 ft 252 kts 260°
2026-04-17 10:14 -31.26075 149.69182 20057 ft 252 kts 259°
2026-04-17 10:15 -31.26408 149.67183 20059 ft 252 kts 259°
2026-04-17 10:15 -31.26742 149.65172 20059 ft 252 kts 260°
2026-04-17 10:15 -31.27074 149.63167 20055 ft 252 kts 259°
2026-04-17 10:15 -31.27408 149.61150 20051 ft 252 kts 259°
2026-04-17 10:16 -31.27741 149.59139 20065 ft 251 kts 259°
2026-04-17 10:16 -31.28071 149.57146 20057 ft 252 kts 260°
2026-04-17 10:16 -31.28402 149.55141 20062 ft 251 kts 260°
2026-04-17 10:16 -31.28731 149.53143 20058 ft 251 kts 260°
2026-04-17 10:17 -31.29061 149.51141 20054 ft 252 kts 259°
2026-04-17 10:17 -31.29395 149.49118 20057 ft 252 kts 259°
2026-04-17 10:17 -31.29725 149.47105 20057 ft 252 kts 259°
2026-04-17 10:17 -31.30052 149.45117 20056 ft 251 kts 259°
2026-04-17 10:18 -31.30382 149.43108 20051 ft 251 kts 259°
2026-04-17 10:18 -31.30710 149.41106 20051 ft 251 kts 259°
2026-04-17 10:18 -31.31036 149.39119 20055 ft 251 kts 259°
2026-04-17 10:18 -31.31364 149.37114 20058 ft 251 kts 259°
2026-04-17 10:19 -31.31690 149.35121 20059 ft 251 kts 259°
2026-04-17 10:19 -31.32020 149.33099 20058 ft 251 kts 260°
2026-04-17 10:19 -31.32346 149.31096 20073 ft 251 kts 259°
2026-04-17 10:19 -31.32672 149.29103 20068 ft 251 kts 260°
2026-04-17 10:20 -31.32987 149.27094 20059 ft 252 kts 262°
2026-04-17 10:20 -31.33148 149.25034 20070 ft 252 kts 264°
2026-04-17 10:20 -31.33302 149.22992 20069 ft 253 kts 264°
2026-04-17 10:20 -31.33454 149.20946 20060 ft 253 kts 264°
2026-04-17 10:21 -31.33603 149.18913 20065 ft 253 kts 264°
2026-04-17 10:21 -31.33755 149.16852 20062 ft 253 kts 265°
2026-04-17 10:21 -31.33905 149.14807 20063 ft 253 kts 265°
2026-04-17 10:21 -31.34055 149.12750 20071 ft 253 kts 264°
2026-04-17 10:22 -31.34203 149.10725 20069 ft 254 kts 265°
2026-04-17 10:22 -31.34353 149.08661 20074 ft 253 kts 264°
2026-04-17 10:22 -31.34503 149.06610 20078 ft 253 kts 265°
2026-04-17 10:22 -31.34651 149.04555 20076 ft 253 kts 265°
2026-04-17 10:23 -31.34799 149.02510 20073 ft 253 kts 264°
2026-04-17 10:23 -31.34946 149.00467 20083 ft 253 kts 264°
2026-04-17 10:23 -31.35094 148.98421 20080 ft 253 kts 264°
2026-04-17 10:23 -31.35240 148.96382 20069 ft 253 kts 264°
2026-04-17 10:24 -31.35387 148.94336 20065 ft 253 kts 265°
2026-04-17 10:24 -31.35534 148.92281 20070 ft 253 kts 265°
2026-04-17 10:24 -31.35680 148.90228 20074 ft 253 kts 264°
2026-04-17 10:24 -31.35824 148.88194 20071 ft 253 kts 264°
2026-04-17 10:25 -31.35970 148.86144 20067 ft 253 kts 264°
2026-04-17 10:25 -31.36116 148.84096 20065 ft 252 kts 264°
2026-04-17 10:25 -31.36260 148.82051 20061 ft 252 kts 265°
2026-04-17 10:25 -31.36404 148.80006 20062 ft 252 kts 264°
2026-04-17 10:26 -31.36547 148.77968 20067 ft 252 kts 264°
2026-04-17 10:26 -31.36689 148.75955 20067 ft 252 kts 264°
2026-04-17 10:26 -31.36833 148.73892 20058 ft 252 kts 264°
2026-04-17 10:26 -31.36974 148.71881 20060 ft 252 kts 264°
2026-04-17 10:27 -31.37116 148.69841 20057 ft 252 kts 264°
2026-04-17 10:27 -31.37259 148.67795 20065 ft 252 kts 264°
2026-04-17 10:27 -31.37399 148.65773 20058 ft 252 kts 264°
2026-04-17 10:27 -31.37541 148.63724 20065 ft 251 kts 264°
2026-04-17 10:28 -31.37681 148.61699 20060 ft 252 kts 264°
2026-04-17 10:28 -31.37822 148.59645 20058 ft 252 kts 264°
2026-04-17 10:28 -31.37961 148.57625 20060 ft 252 kts 264°
2026-04-17 10:28 -31.38102 148.55569 20061 ft 252 kts 264°
2026-04-17 10:29 -31.38240 148.53551 20057 ft 252 kts 264°
2026-04-17 10:29 -31.38380 148.51502 20055 ft 252 kts 264°
2026-04-17 10:29 -31.38519 148.49460 20066 ft 252 kts 264°
2026-04-17 10:29 -31.38656 148.47441 20054 ft 252 kts 264°
2026-04-17 10:30 -31.38795 148.45403 20060 ft 251 kts 264°
2026-04-17 10:30 -31.38933 148.43364 20054 ft 251 kts 264°
2026-04-17 10:30 -31.39070 148.41325 20059 ft 251 kts 264°
2026-04-17 10:30 -31.39207 148.39285 20059 ft 252 kts 264°
2026-04-17 10:31 -31.39345 148.37245 20049 ft 252 kts 264°
2026-04-17 10:31 -31.39481 148.35202 20043 ft 252 kts 264°
2026-04-17 10:31 -31.39617 148.33173 20066 ft 252 kts 264°
2026-04-17 10:31 -31.39755 148.31114 20071 ft 252 kts 264°
2026-04-17 10:32 -31.39889 148.29082 20064 ft 253 kts 264°
2026-04-17 10:32 -31.40027 148.27014 20055 ft 254 kts 264°
2026-04-17 10:32 -31.40162 148.24974 20070 ft 254 kts 264°
2026-04-17 10:32 -31.40297 148.22925 20066 ft 254 kts 264°
2026-04-17 10:33 -31.40433 148.20853 20064 ft 254 kts 264°
2026-04-17 10:33 -31.40568 148.18803 20066 ft 254 kts 264°
2026-04-17 10:33 -31.40703 148.16745 20060 ft 254 kts 264°
2026-04-17 10:33 -31.40839 148.14674 20056 ft 255 kts 264°
2026-04-17 10:34 -31.40973 148.12624 20063 ft 255 kts 264°
2026-04-17 10:34 -31.41108 148.10541 20060 ft 255 kts 264°
2026-04-17 10:34 -31.41241 148.08485 20063 ft 255 kts 264°
2026-04-17 10:34 -31.41375 148.06424 20064 ft 255 kts 264°
2026-04-17 10:35 -31.41511 148.04327 20082 ft 263 kts 264°
2026-04-17 10:35 -31.41651 148.02155 20076 ft 272 kts 264°
2026-04-17 10:35 -31.41796 147.99904 20059 ft 280 kts 264°
2026-04-17 10:35 -31.41942 147.97624 20073 ft 285 kts 264°
2026-04-17 10:36 -31.42091 147.95296 20075 ft 289 kts 264°
2026-04-17 10:36 -31.42241 147.92940 20065 ft 292 kts 264°
2026-04-17 10:36 -31.42393 147.90559 20058 ft 294 kts 264°
2026-04-17 10:36 -31.42544 147.88170 20062 ft 295 kts 264°
2026-04-17 10:37 -31.42694 147.85792 20063 ft 296 kts 265°
2026-04-17 10:37 -31.42847 147.83362 20074 ft 297 kts 265°
2026-04-17 10:37 -31.42997 147.80963 20115 ft 294 kts 264°
2026-04-17 10:37 -31.43144 147.78598 20052 ft 290 kts 264°
2026-04-17 10:38 -31.43289 147.76266 20059 ft 286 kts 264°
2026-04-17 10:38 -31.43431 147.73985 20065 ft 282 kts 264°
2026-04-17 10:38 -31.43574 147.71687 20063 ft 280 kts 264°
2026-04-17 10:38 -31.43630 147.69450 20065 ft 278 kts 267°
2026-04-17 10:39 -31.43663 147.67184 20065 ft 276 kts 266°
2026-04-17 10:39 -31.43692 147.65008 19920 ft 258 kts 267°
2026-04-17 10:39 -31.43716 147.63031 19654 ft 232 kts 266°
2026-04-17 10:39 -31.43736 147.61230 19276 ft 215 kts 266°
2026-04-17 10:40 -31.43756 147.59528 18721 ft 207 kts 265°
2026-04-17 10:40 -31.43778 147.57840 18197 ft 200 kts 265°
2026-04-17 10:40 -31.43788 147.56522 17549 ft 140 kts 264°
2026-04-17 10:40 -31.43803 147.55348 16988 ft 153 kts 264°
2026-04-17 10:41 -31.43823 147.54011 16133 ft 173 kts 265°
2026-04-17 10:41 -31.43834 147.52799 15150 ft 141 kts 264°
2026-04-17 10:41 -31.43846 147.51773 14172 ft 128 kts 263°
2026-04-17 10:41 -31.43866 147.50612 13337 ft 162 kts 265°
2026-04-17 10:42 -31.43887 147.49171 12248 ft 202 kts 265°
2026-04-17 10:42 -31.43902 147.47788 11006 ft 164 kts 265°
2026-04-17 10:42 -31.43916 147.46582 9737 ft 151 kts 265°
2026-04-17 10:42 -31.43930 147.45470 8512 ft 145 kts 265°
2026-04-17 10:43 -31.43944 147.44362 7270 ft 144 kts 266°
2026-04-17 10:43 -31.43965 147.43268 6039 ft 143 kts 257°
2026-04-17 10:43 -31.44232 147.42104 4872 ft 175 kts 246°
2026-04-17 10:43 -31.44750 147.40738 3822 ft 206 kts 240°
2026-04-17 10:44 -31.45406 147.39314 3088 ft 179 kts 237°
2026-04-17 10:44 -31.45919 147.38260 2973 ft 129 kts 234°
2026-04-17 10:44 -31.46297 147.37505 3010 ft 99 kts 231°
2026-04-17 10:44 -31.46702 147.36734 3125 ft 123 kts 234°
2026-04-17 10:45 -31.47182 147.35799 3121 ft 145 kts 235°
2026-04-17 10:45 -31.47724 147.34734 3114 ft 157 kts 236°
2026-04-17 10:45 -31.48304 147.33591 3099 ft 164 kts 235°
2026-04-17 10:45 -31.48898 147.32425 3026 ft 168 kts 236°
2026-04-17 10:46 -31.49442 147.31345 2772 ft 142 kts 234°
2026-04-17 10:46 -31.49911 147.30418 2589 ft 123 kts 234°
2026-04-17 10:46 -31.50324 147.29610 2435 ft 112 kts 232°
2026-04-17 10:46 -31.50715 147.28844 2269 ft 107 kts 231°
2026-04-17 10:47 -31.51103 147.28085 2129 ft 109 kts 231°
2026-04-17 10:47 -31.51487 147.27331 2056 ft 106 kts 231°
2026-04-17 10:47 -31.51871 147.26578 1932 ft 109 kts 230°
2026-04-17 10:47 -31.52254 147.25815 1823 ft 109 kts 232°
2026-04-17 10:48 -31.52625 147.25038 1684 ft 110 kts 232°
2026-04-17 10:48 -31.52990 147.24269 1399 ft 107 kts 231°
2026-04-17 10:48 -31.53384 147.23526 1101 ft 113 kts 230°
2026-04-17 10:48 -31.53793 147.22774 956 ft 103 kts 233°
2026-04-17 10:49 -31.54176 147.22012 790 ft 118 kts 232°
2026-04-17 10:49 -31.54583 147.21248 649 ft 107 kts 236°
2026-04-17 10:49 -31.54936 147.20535 566 ft 84 kts 233°
2026-04-17 10:49 -31.55139 147.20154 567 ft 36 kts 240°
2026-04-17 10:50 -31.55270 147.19887 566 ft 28 kts 241°
2026-04-17 10:50 -31.55307 147.19780 565 ft 18 kts 304°
2026-04-17 10:50 -31.55237 147.19720 565 ft 8 kts 332°
2026-04-17 10:50 -31.55139 147.19665 565 ft 17 kts 332°
2026-04-17 10:51 -31.55090 147.19638 566 ft 5 kts 341°
2026-04-17 10:51 -31.55051 147.19681 568 ft 7 kts 11°
2026-04-17 10:51 -31.55047 147.19675 568 ft 0 kts 230°